N4DWK Weather Reports


Display with metric or nautical units.
time (UTC)temp
F
wind
direction
speed
MPH
gust
MPH
rain 1hr
in
rain 24hr
in
rain mn
in
humidity
%
barometer
mb
20260504042008 51 205 0.0 0.0 0.00 0.00 0.00 61 1016.5
20260504041508 51 205 0.0 0.0 0.00 0.00 0.00 61 1016.5
20260504041008 51 205 0.0 2.0 0.00 0.00 0.00 61 1016.5
20260504040508 51 205 0.0 2.0 0.00 0.00 0.00 61 1016.4
20260504040009 50 205 0.0 2.0 0.00 0.00 0.00 62 1016.4
20260504035508 50 205 0.0 3.0 0.00 0.00 0.00 62 1016.4
20260504035009 50 205 1.0 3.0 0.00 0.00 0.00 62 1016.4
20260504034508 50 205 0.0 0.0 0.00 0.00 0.00 63 1016.4
20260504034008 50 205 0.0 0.0 0.00 0.00 0.00 63 1016.5
20260504033508 50 205 0.0 0.0 0.00 0.00 0.00 63 1016.5
20260504033008 50 205 0.0 0.0 0.00 0.00 0.00 62 1016.5
20260504032508 50 205 0.0 0.0 0.00 0.00 0.00 62 1016.5
20260504032008 51 205 0.0 0.0 0.00 0.00 0.00 62 1016.5
20260504031509 51 205 0.0 0.0 0.00 0.00 0.00 62 1016.5
20260504031008 51 205 0.0 0.0 0.00 0.00 0.00 62 1016.5
20260504030508 51 205 0.0 0.0 0.00 0.00 0.00 62 1016.3
20260504030008 51 205 0.0 0.0 0.00 0.00 0.00 62 1016.3
20260504025508 51 205 0.0 0.0 0.00 0.00 0.00 62 1016.4
20260504025008 51 205 0.0 0.0 0.00 0.00 0.00 62 1016.4
20260504024509 51 205 0.0 0.0 0.00 0.00 0.00 62 1016.4
20260504024008 51 205 0.0 0.0 0.00 0.00 0.00 61 1016.4
20260504023508 51 205 0.0 0.0 0.00 0.00 0.00 62 1016.4
20260504023008 51 205 0.0 0.0 0.00 0.00 0.00 62 1016.4
20260504022508 51 205 0.0 0.0 0.00 0.00 0.00 61 1016.4
20260504022009 52 205 0.0 0.0 0.00 0.00 0.00 61 1016.3
20260504021508 52 205 0.0 0.0 0.00 0.00 0.00 61 1016.4
20260504021009 52 205 0.0 0.0 0.00 0.00 0.00 61 1016.3
20260504020508 52 205 0.0 0.0 0.00 0.00 0.00 61 1016.2
20260504020008 52 205 0.0 0.0 0.00 0.00 0.00 60 1016.3
20260504015508 52 205 0.0 0.0 0.00 0.00 0.00 60 1016.2
20260504015008 52 205 0.0 0.0 0.00 0.00 0.00 60 1016.2
20260504014508 52 205 0.0 0.0 0.00 0.00 0.00 60 1016.1
20260504014009 53 205 0.0 0.0 0.00 0.00 0.00 60 1016.2
20260504013508 53 205 0.0 0.0 0.00 0.00 0.00 59 1016.2
20260504013008 53 205 0.0 0.0 0.00 0.00 0.00 58 1016.2
20260504012508 53 205 0.0 0.0 0.00 0.00 0.00 58 1016.1
20260504012009 54 205 0.0 0.0 0.00 0.00 0.00 57 1016.1
20260504011508 54 205 0.0 0.0 0.00 0.00 0.00 57 1016.0
20260504011008 54 205 0.0 0.0 0.00 0.00 0.00 56 1016.0
20260504010509 54 205 0.0 0.0 0.00 0.00 0.00 56 1016.0
20260504010008 55 205 0.0 0.0 0.00 0.00 0.00 55 1016.0
20260504005508 55 205 0.0 0.0 0.00 0.00 0.00 55 1016.1
20260504005008 55 205 0.0 0.0 0.00 0.00 0.00 54 1016.1
20260504004508 56 205 0.0 0.0 0.00 0.00 0.00 53 1016.1
20260504004007 56 205 0.0 0.0 0.00 0.00 0.00 52 1016.0
20260504003508 57 205 0.0 0.0 0.00 0.00 0.00 52 1015.9
20260504003008 57 205 0.0 0.0 0.00 0.00 0.00 51 1015.9
20260504002508 58 205 0.0 0.0 0.00 0.00 0.00 50 1015.9
20260504002008 58 205 0.0 0.0 0.00 0.00 0.00 48 1015.9
20260504001507 58 205 0.0 0.0 0.00 0.00 0.00 47 1015.8
20260504001008 59 205 0.0 0.0 0.00 0.00 0.00 47 1015.8
20260504000508 60 205 0.0 0.0 0.00 0.00 0.00 45 1015.8
20260504000008 60 205 0.0 0.0 0.00 0.00 0.00 45 1015.7
20260503235508 61 205 0.0 0.0 0.00 0.00 0.00 43 1015.6
20260503235008 61 205 0.0 0.0 0.00 0.00 0.00 43 1015.5
20260503234507 61 205 0.0 0.0 0.00 0.00 0.00 42 1015.5
20260503234008 61 205 0.0 0.0 0.00 0.00 0.00 40 1015.4
20260503233509 62 205 0.0 0.0 0.00 0.00 0.00 40 1015.4
20260503233008 62 205 0.0 0.0 0.00 0.00 0.00 39 1015.4
20260503232508 62 205 0.0 2.0 0.00 0.00 0.00 40 1015.4
20260503232009 62 205 0.0 2.0 0.00 0.00 0.00 39 1015.4
20260503231508 62 205 1.0 3.0 0.00 0.00 0.00 38 1015.4
20260503231008 62 205 1.0 3.0 0.00 0.00 0.00 38 1015.3
20260503230508 62 205 2.0 6.0 0.00 0.00 0.00 38 1015.3
20260503230008 62 221 2.0 6.0 0.00 0.00 0.00 38 1015.4
20260503225509 63 217 1.0 6.0 0.00 0.00 0.00 38 1015.4
20260503225008 63 211 2.0 6.0 0.00 0.00 0.00 37 1015.4
20260503224507 63 225 3.0 6.0 0.00 0.00 0.00 36 1015.4
20260503224007 63 215 2.0 3.0 0.00 0.00 0.00 36 1015.4
20260503223507 64 323 1.0 7.0 0.00 0.00 0.00 36 1015.5
20260503223007 64 229 2.0 7.0 0.00 0.00 0.00 34 1015.5
20260503222507 65 225 3.0 6.0 0.00 0.00 0.00 34 1015.5
20260503222008 65 319 2.0 3.0 0.00 0.00 0.00 34 1015.5
20260503221508 66 5 1.0 3.0 0.00 0.00 0.00 34 1015.6
20260503221007 66 293 1.0 3.0 0.00 0.00 0.00 34 1015.7
20260503220507 66 294 2.0 5.0 0.00 0.00 0.00 34 1015.7
20260503220008 66 282 2.0 6.0 0.00 0.00 0.00 34 1015.8
20260503215507 66 271 1.0 6.0 0.00 0.00 0.00 34 1015.8
20260503215008 65 286 2.0 9.0 0.00 0.00 0.00 34 1015.8
20260503214507 65 229 3.0 9.0 0.00 0.00 0.00 33 1015.7
20260503214007 66 241 5.0 8.0 0.00 0.00 0.00 32 1015.8
20260503213508 66 296 2.0 6.0 0.00 0.00 0.00 34 1015.8
20260503213008 66 12 3.0 6.0 0.00 0.00 0.00 33 1015.7
20260503212507 66 327 2.0 9.0 0.00 0.00 0.00 32 1015.7
20260503212009 66 320 3.0 9.0 0.00 0.00 0.00 32 1015.8
20260503211508 67 242 3.0 7.0 0.00 0.00 0.00 32 1015.8
20260503211008 66 348 3.0 7.0 0.00 0.00 0.00 34 1015.7
20260503210509 67 157 2.0 5.0 0.00 0.00 0.00 33 1015.8
20260503210007 67 318 2.0 6.0 0.00 0.00 0.00 33 1015.8
20260503205508 66 295 2.0 6.0 0.00 0.00 0.00 34 1015.8
20260503205008 67 7 3.0 7.0 0.00 0.00 0.00 35 1015.8
20260503204507 66 332 4.0 8.0 0.00 0.00 0.00 34 1015.7
20260503204009 66 246 3.0 16.0 0.00 0.00 0.00 33 1015.8
20260503203508 65 0 6.0 16.0 0.00 0.00 0.00 35 1015.7
20260503203008 65 242 2.0 9.0 0.00 0.00 0.00 34 1015.7
20260503202507 65 226 4.0 9.0 0.00 0.00 0.00 34 1015.8
20260503202007 65 224 5.0 9.0 0.00 0.00 0.00 33 1015.9
20260503201507 67 244 2.0 6.0 0.00 0.00 0.00 34 1016.0
20260503201008 66 208 2.0 9.0 0.00 0.00 0.00 34 1015.9
20260503200508 66 14 3.0 9.0 0.00 0.00 0.00 34 1016.1
20260503200008 65 342 3.0 8.0 0.00 0.00 0.00 36 1016.1
20260503195507 65 205 2.0 9.0 0.00 0.00 0.00 35 1016.3
20260503195007 65 236 4.0 10.0 0.00 0.00 0.00 34 1016.4
20260503194507 66 10 3.0 10.0 0.00 0.00 0.00 35 1016.4
20260503194008 67 308 2.0 6.0 0.00 0.00 0.00 32 1016.5
20260503193508 67 356 2.0 7.0 0.00 0.00 0.00 35 1016.5
20260503193008 66 238 1.0 7.0 0.00 0.00 0.00 35 1016.5
20260503192507 66 224 2.0 6.0 0.00 0.00 0.00 34 1016.6
20260503192007 65 280 2.0 8.0 0.00 0.00 0.00 36 1016.7
20260503191508 66 340 2.0 8.0 0.00 0.00 0.00 36 1016.7
20260503191008 66 0 4.0 8.0 0.00 0.00 0.00 38 1016.9
20260503190507 65 344 2.0 6.0 0.00 0.00 0.00 36 1017.0
20260503190008 64 293 3.0 8.0 0.00 0.00 0.00 36 1017.1
20260503185509 66 245 2.0 8.0 0.00 0.00 0.00 34 1017.2
20260503185007 65 7 2.0 8.0 0.00 0.00 0.00 36 1017.2
20260503184507 65 5 2.0 8.0 0.00 0.00 0.00 37 1017.2
20260503184008 65 282 4.0 8.0 0.00 0.00 0.00 37 1017.3
20260503183507 64 9 2.0 9.0 0.00 0.00 0.00 36 1017.3
20260503183009 65 325 3.0 9.0 0.00 0.00 0.00 38 1017.4
20260503182507 63 8 1.0 9.0 0.00 0.00 0.00 39 1017.4
20260503182007 63 305 2.0 9.0 0.00 0.00 0.00 37 1017.5
20260503181507 63 270 3.0 9.0 0.00 0.00 0.00 40 1017.6
20260503181008 62 301 3.0 9.0 0.00 0.00 0.00 39 1017.5
20260503180508 62 231 2.0 9.0 0.00 0.00 0.00 40 1017.4
20260503180007 62 222 5.0 9.0 0.00 0.00 0.00 38 1017.6
20260503175507 62 201 2.0 10.0 0.00 0.00 0.00 39 1017.5
20260503175007 63 233 3.0 10.0 0.00 0.00 0.00 39 1017.6
20260503174508 62 15 4.0 7.0 0.00 0.00 0.00 38 1017.5
20260503174007 63 355 2.0 12.0 0.00 0.00 0.00 39 1017.6
20260503173507 61 0 5.0 12.0 0.00 0.00 0.00 38 1017.7
20260503173008 62 268 3.0 8.0 0.00 0.00 0.00 41 1017.7
20260503172507 61 240 4.0 8.0 0.00 0.00 0.00 38 1017.8
20260503172008 61 254 3.0 9.0 0.00 0.00 0.00 39 1017.8
20260503171507 61 6 3.0 9.0 0.00 0.00 0.00 39 1017.8
20260503171007 61 214 3.0 9.0 0.00 0.00 0.00 40 1017.9
20260503170507 61 344 4.0 8.0 0.00 0.00 0.00 39 1018.1
20260503151008 54 347 5.0 12.0 0.00 0.00 0.00 44 1018.9
20260503150508 54 5 4.0 12.0 0.00 0.00 0.00 44 1019.0
20260503131007 51 20 5.0 15.0 0.00 0.00 0.00 55 1018.7
20260503130507 51 358 5.0 15.0 0.00 0.00 0.00 57 1018.7
20260503110507 42 10 0.0 0.0 0.00 0.00 0.00 77 1017.7
20260503090507 47 5 0.0 5.0 0.00 0.00 0.00 65 1015.8
20260503081507 49 23 2.0 6.0 0.00 0.00 0.00 62 1015.3
20260503081007 49 9 2.0 8.0 0.00 0.00 0.00 62 1015.3
20260503080506 49 6 5.0 8.0 0.00 0.00 0.00 62 1015.3
20260503072507 50 26 1.0 6.0 0.00 0.00 0.00 61 1014.9
20260503072007 50 38 1.0 7.0 0.00 0.00 0.00 61 1014.8
20260503071509 50 17 4.0 7.0 0.00 0.00 0.00 60 1014.7
20260503071006 51 2 2.0 9.0 0.00 0.00 0.00 60 1014.6
20260503070507 51 331 3.0 12.0 0.00 0.00 0.00 60 1014.6
20260503055006 52 8 3.0 8.0 0.00 0.00 0.00 61 1014.0
20260503054506 52 339 2.0 7.0 0.00 0.00 0.00 61 1014.0
20260503054007 52 346 2.0 7.0 0.00 0.00 0.00 61 1013.9
20260503053506 52 4 5.0 8.0 0.00 0.00 0.00 61 1013.9
20260503053007 53 27 3.0 8.0 0.00 0.00 0.00 61 1013.9
20260503052507 53 341 3.0 8.0 0.00 0.00 0.00 62 1014.0
20260503052007 53 22 5.0 8.0 0.00 0.00 0.00 62 1014.0
20260503051506 53 2 3.0 6.0 0.00 0.00 0.00 62 1013.9
20260503051006 53 348 2.0 5.0 0.00 0.00 0.00 62 1013.9
20260503050507 53 348 0.0 8.0 0.00 0.00 0.00 62 1013.9
20260503050006 53 359 3.0 8.0 0.00 0.00 0.00 62 1013.9
20260503045507 53 8 4.0 6.0 0.00 0.00 0.00 62 1013.9
20260503045007 53 348 3.0 5.0 0.00 0.00 0.00 62 1013.9
20260503044506 53 352 3.0 5.0 0.00 0.00 0.00 62 1013.8
20260503044007 53 5 2.0 7.0 0.00 0.00 0.00 62 1013.8
20260503043506 53 18 3.0 7.0 0.00 0.00 0.00 62 1013.8
20260503043006 53 357 2.0 5.0 0.00 0.00 0.00 63 1013.8
20260503042508 53 358 2.0 5.0 0.00 0.00 0.00 63 1013.7